Regional Weather Roundup
Issued by NWS Goodland, KS

Home | Current Version | Previous Version | Graphics & Text | Print | Product List | Glossary On
Versions: 1 2 3 4 5 6 7 8 9 10 11 12 13 14 15 16 17 18 19 20 21 22 23 24 25 26 27 28 29 30 31 32 33 34 35 36 37 38 39 40 41 42 43 44 45 46 47 48 49 50
464
ASUS43 KGLD 292259
RWRGLD

GOODLAND FORECAST AREA HOURLY WEATHER ROUNDUP
NATIONAL WEATHER SERVICE GOODLAND KS
500 PM MDT SUN MAY 29 2016

...OFFICIAL OBSERVATIONS...

CITY           SKY/WX    TMP DP  RH WIND       PRES   REMARKS
GOODLAND KS    CLOUDY    72  53  51 SE26G37   30.01R
HILL CITY KS   CLOUDY    76  44  32 S23G39    30.04R
IMPERIAL NEB   MOSUNNY   81  53  37 E8        29.97F
MCCOOK NEB     CLOUDY    72  54  53 S18G30    29.98S
AKRON CO       SUNNY     79  43  27 VRB3      30.03F
BURLINGTON CO  SUNNY     83  38  20 W10       30.01S
LIMON CO       TSTM      60  47  61 MISG      30.11R
$$

...UNOFFICIAL OBSERVATIONS...

CITY           SKY/WX    TMP DP  RH WIND       PRES   REMARKS
GOVE KS          N/A     76  32  20 MISG        N/A
LENORA KS        N/A     73  32  22 MISG        N/A
SHARON SPRINGS   N/A     76  53  44 S20G33      N/A
KIT CARSON CO    N/A     83  46  26 MISG        N/A
YUMA CO          N/A     81  48  31 E5          N/A
$$




USA.gov is the U.S. government's official web portal to all federal, state and local government web resources and services.